Time,TemperatureF,DewpointF,PressureIn,WindDirection,WindDirectionDegrees,WindSpeedMPH,WindSpeedGustMPH,Humidity,HourlyPrecipIn,Conditions,Clouds,dailyrainin,SolarRadiationWatts/m^2,SoftwareType,DateUTC
2013-05-10 00:03:00,34.0,32.0,-100.00,NNE,31,6.0,13.0,92,0.01,,,0.05,0.000000,,2013-05-10 04:03:00,
2013-05-10 00:12:00,34.0,32.0,-100.00,NNE,33,6.0,15.0,91,0.01,,,0.06,0.000000,,2013-05-10 04:12:00,
2013-05-10 00:33:00,34.0,32.0,-100.00,NNE,33,6.0,15.0,91,0.01,,,0.06,0.000000,,2013-05-10 04:33:00,
2013-05-10 00:43:00,34.0,32.0,-100.00,NNE,33,6.0,15.0,91,0.01,,,0.06,0.000000,,2013-05-10 04:43:00,
2013-05-10 00:53:00,34.0,32.0,-100.00,NNE,33,6.0,15.0,91,0.01,,,0.06,0.000000,,2013-05-10 04:53:00,
2013-05-10 01:02:00,34.0,32.0,-100.00,NNE,33,6.0,15.0,91,0.01,,,0.06,0.000000,,2013-05-10 05:02:00,
2013-05-10 01:12:00,34.0,31.0,-100.00,NE,37,6.0,15.0,90,0.02,,,0.08,0.000000,,2013-05-10 05:12:00,
2013-05-10 01:32:00,34.0,31.0,-100.00,NE,37,6.0,15.0,90,0.02,,,0.08,0.000000,,2013-05-10 05:32:00,
2013-05-10 01:42:00,34.0,31.0,-100.00,NE,37,6.0,15.0,90,0.02,,,0.08,0.000000,,2013-05-10 05:42:00,
2013-05-10 01:52:00,34.0,31.0,-100.00,NE,37,6.0,15.0,90,0.02,,,0.08,0.000000,,2013-05-10 05:52:00,
2013-05-10 02:01:00,34.0,31.0,-100.00,NE,37,6.0,15.0,90,0.02,,,0.08,0.000000,,2013-05-10 06:01:00,
2013-05-10 02:12:00,33.0,28.0,-100.00,NNE,32,8.0,18.0,83,0.00,,,0.08,0.000000,,2013-05-10 06:12:00,
2013-05-10 02:42:00,33.0,28.0,-100.00,NNE,32,8.0,18.0,83,0.00,,,0.08,0.000000,,2013-05-10 06:42:00,
2013-05-10 02:52:00,33.0,28.0,-100.00,NNE,32,8.0,18.0,83,0.00,,,0.08,0.000000,,2013-05-10 06:52:00,
2013-05-10 03:02:00,33.0,28.0,-100.00,NNE,32,8.0,18.0,83,0.00,,,0.08,0.000000,,2013-05-10 07:02:00,
2013-05-10 04:42:00,32.0,28.0,-100.00,NNE,25,7.0,17.0,85,-99.99,,,0.08,0.000000,,2013-05-10 08:42:00,
2013-05-10 04:52:00,32.0,28.0,-100.00,NNE,25,7.0,17.0,85,-99.99,,,0.08,0.000000,,2013-05-10 08:52:00,
2013-05-10 05:01:00,32.0,28.0,-100.00,NNE,25,7.0,17.0,85,-99.99,,,0.08,0.000000,,2013-05-10 09:01:00,
2013-05-10 05:11:00,32.0,28.0,-100.00,NNE,25,7.0,17.0,85,-99.99,,,0.08,0.000000,,2013-05-10 09:11:00,
2013-05-10 05:12:00,32.0,28.0,-100.00,NNE,29,7.0,18.0,85,0.00,,,0.08,0.000000,,2013-05-10 09:12:00,
2013-05-10 05:33:00,32.0,28.0,-100.00,NNE,29,7.0,18.0,85,0.00,,,0.08,0.000000,,2013-05-10 09:33:00,
2013-05-10 05:43:00,32.0,28.0,-100.00,NNE,29,7.0,18.0,85,0.00,,,0.08,0.000000,,2013-05-10 09:43:00,
2013-05-10 05:52:00,32.0,28.0,-100.00,NNE,29,7.0,18.0,85,0.00,,,0.08,0.000000,,2013-05-10 09:52:00,
2013-05-10 06:03:00,32.0,28.0,-100.00,NNE,29,7.0,18.0,85,0.00,,,0.08,0.000000,,2013-05-10 10:03:00,
2013-05-10 06:12:00,31.0,27.0,-100.00,NNE,26,6.0,20.0,85,0.00,,,0.08,0.000000,,2013-05-10 10:12:00,
2013-05-10 06:33:00,31.0,27.0,-100.00,NNE,26,6.0,20.0,85,0.00,,,0.08,0.000000,,2013-05-10 10:33:00,
2013-05-10 06:42:00,31.0,27.0,-100.00,NNE,26,6.0,20.0,85,0.00,,,0.08,0.000000,,2013-05-10 10:42:00,
2013-05-10 06:53:00,31.0,27.0,-100.00,NNE,26,6.0,20.0,85,0.00,,,0.08,0.000000,,2013-05-10 10:53:00,
2013-05-10 07:02:00,31.0,27.0,-100.00,NNE,26,6.0,20.0,85,0.00,,,0.08,0.000000,,2013-05-10 11:02:00,
2013-05-10 09:42:00,34.0,27.0,-100.00,NNE,22,7.0,18.0,76,-99.99,,,0.08,207.000000,,2013-05-10 13:42:00,
2013-05-10 09:52:00,34.0,27.0,-100.00,NNE,22,7.0,18.0,76,-99.99,,,0.08,207.000000,,2013-05-10 13:52:00,
2013-05-10 10:02:00,34.0,27.0,-100.00,NNE,22,7.0,18.0,76,-99.99,,,0.08,207.000000,,2013-05-10 14:02:00,
2013-05-10 10:11:00,34.0,27.0,-100.00,NNE,22,7.0,18.0,76,-99.99,,,0.08,207.000000,,2013-05-10 14:11:00,
2013-05-10 10:12:00,-999.0,-99.9,-100.00,NE,43,7.0,16.0,68,0.00,,,0.08,443.000000,,2013-05-10 14:12:00,
2013-05-10 10:42:00,37.0,27.0,-100.00,NE,43,7.0,16.0,68,0.00,,,0.08,443.000000,,2013-05-10 14:42:00,
2013-05-10 10:52:00,37.0,27.0,-100.00,NE,43,7.0,16.0,68,0.00,,,0.08,443.000000,,2013-05-10 14:52:00,
2013-05-10 11:02:00,37.0,27.0,-100.00,NE,43,7.0,16.0,68,0.00,,,0.08,443.000000,,2013-05-10 15:02:00,
2013-05-10 12:12:00,41.0,27.0,-100.00,NNE,17,6.0,17.0,58,-99.99,,,0.08,863.000000,,2013-05-10 16:12:00,
2013-05-10 12:43:00,41.0,27.0,-100.00,NNE,17,6.0,17.0,58,-99.99,,,0.08,863.000000,,2013-05-10 16:43:00,
2013-05-10 12:53:00,41.0,27.0,-100.00,NNE,17,6.0,17.0,58,-99.99,,,0.08,863.000000,,2013-05-10 16:53:00,
2013-05-10 13:02:00,41.0,27.0,-100.00,NNE,17,6.0,17.0,58,-99.99,,,0.08,863.000000,,2013-05-10 17:02:00,
2013-05-10 13:12:00,43.0,28.0,-100.00,NE,52,6.0,14.0,54,0.00,,,0.08,1004.000000,,2013-05-10 17:12:00,
2013-05-10 13:42:00,43.0,28.0,-100.00,NE,52,6.0,14.0,54,0.00,,,0.08,1004.000000,,2013-05-10 17:42:00,
2013-05-10 13:52:00,43.0,28.0,-100.00,NE,52,6.0,14.0,54,0.00,,,0.08,1004.000000,,2013-05-10 17:52:00,
2013-05-10 14:10:00,-999.0,-99.9,-100.00,NE,52,6.0,14.0,54,0.00,,,0.08,1004.000000,,2013-05-10 18:10:00,
2013-05-10 14:43:00,44.0,26.0,-100.00,NNE,18,6.0,13.0,49,0.00,,,0.08,1027.000000,,2013-05-10 18:43:00,
2013-05-10 14:54:00,44.0,26.0,-100.00,NNE,18,6.0,13.0,49,0.00,,,0.08,1027.000000,,2013-05-10 18:54:00,
2013-05-10 15:02:00,44.0,26.0,-100.00,NNE,18,6.0,13.0,49,0.00,,,0.08,1027.000000,,2013-05-10 19:02:00,
2013-05-10 15:11:00,44.0,26.0,-100.00,NNE,18,6.0,13.0,49,0.00,,,0.08,1027.000000,,2013-05-10 19:11:00,
2013-05-10 15:12:00,46.0,27.0,-100.00,NNE,29,6.0,15.0,47,0.00,,,-99.99,1000.000000,,2013-05-10 19:12:00,
2013-05-10 15:42:00,46.0,27.0,-100.00,NNE,29,6.0,15.0,47,0.00,,,-99.99,1000.000000,,2013-05-10 19:42:00,
2013-05-10 15:52:00,46.0,27.0,-100.00,NNE,29,6.0,15.0,47,0.00,,,-99.99,1000.000000,,2013-05-10 19:52:00,
2013-05-10 16:01:00,46.0,27.0,-100.00,NNE,29,6.0,15.0,47,0.00,,,-99.99,1000.000000,,2013-05-10 20:01:00,
2013-05-10 16:42:00,47.0,27.0,-100.00,NE,47,6.0,14.0,46,0.00,,,0.08,918.000000,,2013-05-10 20:42:00,
2013-05-10 16:52:00,47.0,27.0,-100.00,NE,47,6.0,14.0,46,0.00,,,0.08,918.000000,,2013-05-10 20:52:00,
2013-05-10 17:02:00,47.0,27.0,-100.00,NE,47,6.0,14.0,46,0.00,,,0.08,918.000000,,2013-05-10 21:02:00,
2013-05-10 17:11:00,47.0,27.0,-100.00,NE,47,6.0,14.0,46,0.00,,,0.08,918.000000,,2013-05-10 21:11:00,
2013-05-10 18:12:00,46.0,22.0,-100.00,NE,53,4.0,13.0,38,-99.99,,,0.08,616.000000,,2013-05-10 22:12:00,
2013-05-10 18:42:00,46.0,22.0,-100.00,NE,53,4.0,13.0,38,-99.99,,,0.08,616.000000,,2013-05-10 22:42:00,
2013-05-10 18:52:00,46.0,22.0,-100.00,NE,53,4.0,13.0,38,-99.99,,,0.08,616.000000,,2013-05-10 22:52:00,
2013-05-10 19:02:00,46.0,22.0,-100.00,NE,53,4.0,13.0,38,-99.99,,,0.08,616.000000,,2013-05-10 23:02:00,
2013-05-10 19:33:00,46.0,21.0,-100.00,NE,39,4.0,8.0,36,0.00,,,0.08,425.000000,,2013-05-10 23:33:00,
2013-05-10 19:42:00,46.0,21.0,-100.00,NE,39,4.0,8.0,36,0.00,,,0.08,425.000000,,2013-05-10 23:42:00,
2013-05-10 19:52:00,46.0,21.0,-100.00,NE,39,4.0,8.0,36,0.00,,,0.08,425.000000,,2013-05-10 23:52:00,
2013-05-10 20:02:00,46.0,21.0,-100.00,NE,39,4.0,8.0,36,0.00,,,0.08,425.000000,,2013-05-11 00:02:00,
2013-05-10 20:11:00,46.0,21.0,-100.00,NE,39,4.0,8.0,36,0.00,,,0.08,425.000000,,2013-05-11 00:11:00,
2013-05-10 21:32:00,37.0,20.0,-100.00,NE,56,1.0,6.0,50,-99.99,,,0.05,48.000000,,2013-05-11 01:32:00,
2013-05-10 21:42:00,37.0,20.0,-100.00,NE,56,1.0,6.0,50,-99.99,,,0.05,48.000000,,2013-05-11 01:42:00,
2013-05-10 21:52:00,37.0,20.0,-100.00,NE,56,1.0,6.0,50,-99.99,,,0.05,48.000000,,2013-05-11 01:52:00,
2013-05-10 22:02:00,37.0,20.0,-100.00,NE,56,1.0,6.0,50,-99.99,,,0.05,48.000000,,2013-05-11 02:02:00,
2013-05-10 22:11:00,37.0,20.0,-100.00,NE,56,1.0,6.0,50,-99.99,,,0.05,48.000000,,2013-05-11 02:11:00,
2013-05-10 22:42:00,32.0,21.0,-100.00,NE,39,1.0,3.0,64,0.00,,,0.04,1.000000,,2013-05-11 02:42:00,
2013-05-10 22:52:00,32.0,21.0,-100.00,NE,39,1.0,3.0,64,0.00,,,0.04,1.000000,,2013-05-11 02:52:00,
2013-05-10 23:01:00,32.0,21.0,-100.00,NE,39,1.0,3.0,64,0.00,,,0.04,1.000000,,2013-05-11 03:01:00,
2013-05-10 23:11:00,32.0,21.0,-100.00,NE,39,1.0,3.0,64,0.00,,,0.04,1.000000,,2013-05-11 03:11:00,
2013-05-10 23:12:00,30.0,22.0,-100.00,West,278,1.0,2.0,73,0.00,,,0.03,0.000000,,2013-05-11 03:12:00,
2013-05-10 23:43:00,30.0,22.0,-100.00,West,278,1.0,2.0,73,0.00,,,0.03,0.000000,,2013-05-11 03:43:00,
2013-05-10 23:53:00,30.0,22.0,-100.00,West,278,1.0,2.0,73,0.00,,,0.03,0.000000,,2013-05-11 03:53:00,